Theta_e
341 337 333 325 316 317 314 318 325 323 322 332 331 323 321 325 322 326 349 344 342 345 350 359 363 364 365 366 365 365 364 363 363 362 362 362 361 361 362 362 361 359 358 358 356 355 355 354 354
331 332 325 321 313 311 313 322 322 326 326 331 334 328 325 322 339 346 347 347 344 345 348 356 363 364 364 364 364 363 363 363 362 362 362 361 361 360 361 360 358 356 356 355 354 353 352 351 349
331 330 319 318 314 311 312 318 322 329 330 328 329 335 332 331 339 346 354 348 346 344 344 359 363 364 364 362 363 362 362 362 362 361 361 361 359 358 357 357 356 355 353 352 351 349 349 350 351
327 322 320 313 312 316 317 321 323 324 329 333 333 329 337 351 346 351 353 350 349 343 343 360 363 363 363 362 362 362 362 361 361 361 360 359 356 356 355 355 354 353 351 349 349 351 352 353 354
325 320 314 314 314 318 320 321 320 322 327 330 333 330 337 350 354 355 352 350 349 344 349 356 362 363 362 360 361 362 361 361 361 361 360 357 356 355 353 352 351 350 350 352 353 354 355 356 357
316 319 312 311 315 319 321 322 320 321 328 330 331 332 340 353 354 353 352 351 350 347 355 353 361 362 362 361 361 361 361 361 361 361 360 358 356 354 353 352 351 352 353 354 355 357 358 357 357
314 314 311 314 315 317 321 324 319 320 324 327 334 329 343 347 354 355 351 352 351 353 354 350 352 357 361 361 362 361 361 361 362 361 360 358 355 355 353 353 353 353 353 354 355 352 350 351 348
316 314 310 312 313 315 323 323 323 322 323 335 337 325 328 347 354 354 351 350 351 353 354 350 350 349 349 354 360 360 360 361 361 360 358 358 355 354 353 355 354 352 354 353 343 342 343 343 344
318 308 305 309 312 316 323 321 325 326 324 329 328 328 339 352 352 350 348 348 350 350 354 352 350 348 346 345 353 359 359 359 358 357 356 354 350 349 351 356 356 353 348 342 340 339 341 344 347
313 307 307 312 314 315 320 321 322 321 322 323 324 330 339 349 347 344 345 346 347 348 351 353 352 350 348 346 351 348 348 349 350 352 354 351 353 358 357 358 351 345 342 342 342 341 346 346 338
313 307 311 312 314 315 316 318 323 320 317 321 321 328 339 343 345 343 345 346 346 347 349 351 353 356 350 348 349 345 347 349 353 356 355 356 355 359 357 353 346 346 343 340 338 337 334 333 332
309 312 313 313 314 314 313 317 317 320 320 323 323 326 337 341 343 343 344 346 347 347 348 350 353 357 356 350 350 350 351 353 353 352 355 358 359 360 354 339 339 340 335 335 334 330 334 332 331
310 311 313 314 314 314 315 313 314 317 321 325 323 324 335 340 344 346 347 349 349 347 348 350 353 358 359 358 353 353 353 350 350 352 356 357 356 353 340 341 336 333 335 332 330 330 331 330 329
311 311 311 312 312 313 311 312 314 316 320 322 322 323 328 336 343 347 348 348 349 350 349 350 352 360 357 360 362 353 351 352 351 357 358 358 350 346 341 337 334 334 332 330 330 331 331 329 328
311 307 309 310 311 310 312 307 308 315 318 319 323 323 324 332 338 344 348 348 349 350 351 350 353 359 363 358 355 354 351 351 356 354 356 349 346 349 342 334 334 334 334 332 332 331 331 327 328
306 307 302 309 310 310 309 303 310 314 314 316 317 322 324 330 335 342 348 350 350 349 351 354 350 356 359 358 354 351 353 355 353 349 346 344 344 343 340 333 332 334 334 332 330 327 327 327 328
305 299 302 304 310 310 308 305 310 314 313 313 317 318 323 326 334 341 346 350 350 349 350 350 355 352 354 359 354 356 364 354 346 341 339 343 338 336 337 332 334 336 332 330 329 329 330 327 329
299 301 302 302 308 308 306 306 310 313 313 313 314 318 319 322 331 339 344 349 350 349 353 355 353 356 357 355 356 355 355 348 342 338 337 340 335 334 336 333 336 334 332 330 331 335 330 328 329
304 303 302 306 308 307 306 306 309 312 312 313 314 315 318 320 325 344 344 348 350 350 353 354 353 357 353 351 351 351 347 344 339 336 339 338 335 335 339 333 337 336 334 335 336 332 332 326 332
304 302 301 305 307 306 305 305 308 311 312 313 313 315 316 320 323 333 346 348 350 351 350 352 354 358 354 352 354 353 349 342 338 335 341 337 336 337 337 341 337 338 334 337 335 337 329 326 330
302 300 301 301 305 307 304 302 305 309 312 313 314 315 317 317 321 327 343 346 348 347 351 352 356 359 358 359 357 358 352 345 336 336 334 336 336 335 341 337 337 339 338 333 336 335 337 326 328
299 304 302 301 300 296 305 295 303 307 308 310 313 314 315 317 320 331 337 345 347 345 347 350 354 357 358 364 357 356 345 340 336 335 333 334 337 336 338 340 338 342 334 341 335 334 333 337 326
301 305 303 303 300 300 300 297 301 307 306 309 312 314 315 317 318 322 336 348 348 345 348 351 350 357 358 357 360 355 351 345 341 336 341 338 341 338 336 338 339 341 335 339 337 337 337 330 327
306 303 303 303 300 294 298 298 299 303 306 309 312 314 315 316 318 320 324 345 351 350 351 353 355 347 354 354 358 360 357 349 342 338 334 330 331 334 340 337 342 341 341 338 336 337 336 336 333
304 301 293 292 292 291 300 297 300 307 309 311 312 315 318 320 320 320 321 322 340 350 350 351 352 348 348 347 351 351 353 353 350 344 336 333 331 332 340 343 343 339 341 340 339 339 337 336 332
302 301 294 288 289 293 301 295 300 309 313 314 313 315 317 320 321 322 324 325 326 333 348 352 353 350 348 346 342 343 345 350 349 343 338 334 334 336 342 343 343 342 339 338 339 335 333 336 333
302 299 304 297 298 294 297 300 305 311 312 312 312 314 317 319 321 322 324 326 327 329 338 349 352 353 346 348 347 346 337 349 351 345 348 340 341 336 343 341 342 342 339 338 339 334 334 335 335
303 306 297 297 290 289 294 296 297 305 308 311 312 314 315 318 320 321 325 327 329 330 332 346 348 354 356 348 351 352 349 357 358 350 345 344 343 342 341 341 342 341 339 338 339 337 336 335 331
298 298 300 300 298 290 289 294 307 307 309 311 312 313 314 316 319 322 324 329 329 330 328 332 341 344 349 356 353 352 354 353 351 348 341 342 342 341 339 338 337 337 337 340 340 340 334 332 333
298 297 300 293 293 297 294 296 309 309 311 311 310 311 314 316 319 322 323 326 328 331 331 328 330 341 343 348 353 350 351 351 341 343 342 335 334 343 340 339 336 335 334 338 336 335 331 330 330
Wind_Speed
10 13 11 8 10 10 16 11 8 7 1 4 3 4 4 9 6 7 12 13 20 22 21 20 16 14 15 15 14 15 15 14 13 12 11 10 10 10 9 8 7 7 8 8 7 6 6 6 6
13 8 9 9 11 15 12 10 9 13 4 2 7 5 3 7 17 12 14 12 20 20 18 20 17 16 15 15 14 14 14 14 13 12 12 11 10 10 8 7 6 6 6 6 5 5 5 5 6
15 10 10 13 14 17 5 4 8 11 9 3 4 3 0 5 8 11 17 19 21 19 18 19 17 15 15 15 14 14 14 13 13 12 11 11 10 9 7 6 6 5 5 4 4 4 4 4 4
9 8 8 12 20 17 13 10 3 2 6 8 9 7 5 10 5 7 17 21 21 20 19 20 17 16 15 14 13 14 14 13 13 12 11 10 10 9 7 6 6 6 5 3 2 3 3 4 4
9 9 14 18 20 22 3 10 1 8 7 7 7 7 5 8 4 12 18 20 20 21 20 19 15 17 16 15 14 13 13 13 13 12 11 10 9 8 7 6 6 5 4 2 1 2 3 4 6
10 11 16 17 22 20 6 6 3 9 8 8 6 10 8 11 8 12 17 20 19 20 20 19 17 15 15 14 12 12 12 12 12 11 11 10 9 8 6 5 5 4 3 1 2 4 5 4 4
17 15 18 23 22 15 10 11 4 9 10 6 5 10 11 11 12 14 16 17 19 20 19 17 18 17 15 14 12 11 10 11 11 10 10 9 9 7 6 5 4 3 1 0 2 3 3 2 2
15 15 26 21 21 22 12 8 11 8 11 12 6 7 8 17 14 15 17 16 17 18 20 18 18 18 17 15 15 13 12 10 9 10 9 9 8 6 7 7 6 2 1 2 3 2 3 3 4
19 16 19 24 25 22 13 8 12 3 14 8 6 6 9 17 16 17 17 19 18 16 20 19 19 18 17 17 14 14 13 12 10 10 9 9 9 9 11 9 6 2 2 3 2 3 7 10 10
16 16 24 22 23 20 20 11 15 9 14 7 11 6 1 14 15 18 19 18 20 19 20 19 18 17 17 14 15 13 12 11 11 10 10 10 7 6 7 9 5 5 6 8 9 9 12 13 8
20 20 20 23 23 22 15 16 10 10 14 14 8 9 8 14 16 17 18 18 19 19 15 18 16 16 16 13 11 8 8 8 8 10 9 11 6 4 7 7 7 8 11 6 7 8 4 9 6
23 21 21 26 19 14 15 19 23 13 16 5 7 5 8 13 14 17 18 18 18 19 17 18 17 14 12 10 10 10 9 9 7 8 8 5 4 7 1 1 3 3 3 2 2 4 4 4 5
20 22 22 18 21 20 17 19 23 15 17 20 4 5 12 10 14 16 16 14 15 16 16 17 17 15 11 9 10 10 8 7 8 8 9 7 6 3 4 3 3 4 2 3 3 4 4 5 4
19 21 20 22 16 18 21 20 21 21 19 18 16 16 11 15 15 15 17 18 17 17 17 17 17 15 13 10 9 7 7 8 8 7 8 4 3 4 4 3 2 2 3 4 5 5 4 4 5
16 23 18 18 20 20 18 23 26 24 22 19 25 15 17 13 12 15 17 14 16 17 19 18 18 18 14 12 9 7 8 9 7 7 8 6 4 4 3 3 2 2 2 3 2 5 2 3 3
16 21 21 20 22 20 19 24 23 25 26 26 19 21 17 15 13 14 16 15 14 16 19 18 17 18 16 12 10 8 9 7 7 7 7 7 6 6 4 4 3 2 1 1 3 4 4 4 3
18 18 24 25 21 23 24 24 21 22 23 26 24 20 25 18 14 12 16 18 15 16 18 19 15 18 17 12 10 10 10 6 7 7 7 8 8 8 5 4 4 3 1 3 4 3 5 3 2
20 22 20 21 16 17 18 23 21 20 20 22 23 16 17 23 20 18 15 17 16 17 15 16 15 17 16 12 9 9 9 8 8 7 8 9 8 8 6 6 4 3 1 3 4 5 3 4 3
21 21 22 14 16 17 16 18 21 18 20 16 15 17 22 19 25 21 17 13 15 14 17 16 16 19 14 12 11 11 11 10 9 8 11 10 9 8 6 6 5 2 2 4 0 1 4 5 2
18 20 23 19 19 14 17 21 20 20 17 18 18 19 18 21 21 15 18 21 23 18 14 14 15 16 15 12 11 11 10 10 10 9 9 9 10 9 7 6 6 4 5 2 2 4 1 4 6
19 19 20 21 21 22 20 23 23 23 23 21 20 21 19 22 21 18 23 20 22 23 15 15 16 16 14 15 10 9 9 8 9 10 9 8 9 10 7 7 5 5 4 5 3 1 5 3 4
20 17 18 19 18 17 20 18 22 23 26 26 23 22 20 21 22 22 18 23 22 17 24 15 17 17 15 15 15 15 13 11 12 11 10 11 11 9 7 7 7 6 2 5 4 1 2 5 3
17 19 20 17 18 20 22 17 18 15 19 16 17 19 22 20 22 21 26 23 22 20 18 24 30 21 16 15 14 14 14 11 10 11 14 12 10 11 9 9 8 6 5 3 3 3 3 3 3
17 19 22 20 19 18 24 22 21 18 21 22 13 15 13 13 17 20 18 28 25 21 23 24 22 20 18 14 11 16 13 11 11 12 13 12 12 10 11 11 8 8 4 6 4 3 2 4 4
16 16 13 17 16 19 22 23 20 15 19 5 6 7 8 9 10 11 14 11 25 29 25 22 21 16 21 14 8 14 9 10 13 13 12 14 12 12 11 10 9 8 7 7 5 5 4 3 4
24 22 17 24 19 20 21 23 20 16 9 1 4 2 4 8 10 9 11 13 15 19 24 24 23 22 22 26 24 14 9 13 15 16 12 11 11 13 14 11 10 10 10 8 7 6 5 5 4
17 22 20 25 26 22 22 21 18 13 10 8 4 3 6 7 7 6 6 8 11 14 18 20 21 24 20 20 17 19 20 24 19 18 13 11 10 12 15 13 11 11 11 10 9 5 5 5 5
19 18 16 14 22 26 20 23 18 21 17 11 11 7 4 4 6 6 6 4 7 10 12 18 21 24 20 20 18 18 19 17 16 16 16 14 12 12 17 14 12 11 11 11 10 8 7 6 5
17 18 20 19 17 15 19 18 11 5 8 12 8 5 4 4 8 8 8 7 8 6 7 11 15 17 18 25 20 18 17 18 12 14 14 8 8 8 11 14 12 11 11 10 9 8 9 8 6
11 16 21 10 18 20 19 12 13 7 10 3 7 6 7 7 8 9 10 11 11 11 11 9 12 15 16 17 16 18 16 15 14 14 12 7 8 5 11 12 13 12 13 11 11 9 10 10 8
Wind_Direction
215 227 243 260 244 231 269 172 92 95 311 351 44 247 154 106 163 73 112 146 136 131 141 144 142 146 142 140 139 135 135 135 137 133 131 126 120 117 112 108 100 89 84 80 70 55 45 33 25
237 249 245 271 256 257 239 116 160 143 131 310 291 124 291 133 79 116 129 147 140 130 145 144 145 145 145 141 139 136 136 139 136 136 133 127 124 120 117 113 105 89 74 67 62 56 50 30 11
257 250 271 245 244 261 4 68 36 102 116 215 233 336 109 60 108 135 113 149 139 144 153 131 144 143 142 143 139 137 139 139 139 140 134 129 125 123 124 122 114 100 77 57 43 34 28 20 1
217 214 243 256 261 249 299 91 21 172 153 185 218 181 172 50 115 128 146 145 140 149 149 137 142 140 140 144 142 141 142 141 141 136 132 130 130 130 131 123 112 106 97 78 39 11 357 348 337
237 262 252 252 243 264 134 291 68 235 191 183 193 154 140 147 116 123 159 155 154 147 133 147 142 140 143 147 145 144 145 143 139 136 135 134 132 131 129 120 113 113 120 119 348 331 326 321 316
228 241 248 246 248 243 217 265 285 262 195 168 210 246 98 115 156 157 165 158 161 147 132 141 141 140 140 146 148 149 149 143 141 141 139 138 136 134 132 130 128 134 137 118 326 322 322 323 313
241 236 243 259 263 260 214 202 268 237 259 191 159 239 103 153 143 155 166 158 157 144 141 156 157 147 142 146 151 153 151 148 144 143 142 141 141 145 151 158 158 166 181 350 357 349 353 19 332
240 252 261 249 261 262 233 187 243 257 266 76 157 195 239 140 150 156 163 164 153 155 145 162 161 162 163 159 159 158 155 154 148 146 147 146 152 167 184 191 173 167 349 78 71 13 318 278 242
227 252 243 247 253 258 267 247 240 249 270 160 192 256 46 115 157 165 168 170 166 170 152 165 167 165 172 161 158 159 160 161 155 156 163 174 198 178 167 104 114 124 129 145 171 242 265 255 241
231 231 243 249 258 263 261 248 253 180 225 192 202 169 191 143 173 177 177 176 174 177 164 167 171 165 175 159 152 176 170 181 190 187 176 221 199 103 83 99 137 178 203 214 212 220 240 250 269
222 245 245 244 261 274 301 299 256 253 227 214 185 129 170 173 189 187 190 184 179 178 170 168 170 164 178 163 163 178 173 183 195 196 184 233 175 138 213 152 190 198 205 228 220 215 288 3 333
233 245 249 271 278 262 256 275 274 254 260 289 117 152 169 189 199 205 199 189 177 175 176 163 167 166 187 162 176 177 180 186 185 191 188 191 191 193 333 310 51 215 37 359 348 357 359 312 317
236 250 254 253 264 277 265 253 261 247 256 275 196 206 168 196 205 217 208 191 179 177 175 168 165 170 179 183 185 186 191 173 177 167 191 197 227 127 212 80 334 338 353 7 340 10 1 330 334
248 247 258 264 248 255 253 256 261 249 257 274 272 247 222 181 197 205 215 188 191 181 173 180 165 164 178 195 187 174 195 171 182 172 171 153 193 161 125 173 119 35 1 16 338 13 331 330 334
255 265 255 248 259 247 253 255 246 251 252 217 242 259 245 188 189 203 211 207 183 177 171 171 172 166 170 183 180 184 172 184 176 161 135 178 149 166 113 108 164 72 53 310 348 298 330 345 326
264 249 257 247 236 234 239 253 244 238 245 244 220 252 243 220 203 188 197 200 189 185 170 169 177 164 163 174 175 185 178 172 157 137 162 158 147 149 198 174 123 66 5 5 27 0 340 16 6
236 246 238 247 248 230 216 246 250 254 235 236 241 213 248 230 191 200 189 184 184 199 172 180 170 165 163 160 178 189 137 184 159 157 160 174 163 161 185 140 113 232 71 34 344 42 347 42 327
245 226 234 259 260 203 249 256 242 259 246 246 235 230 223 259 193 192 196 176 182 195 169 186 174 160 168 160 178 185 151 178 160 170 158 165 163 159 181 126 139 225 130 70 48 10 15 0 340
276 286 286 274 244 253 250 252 252 236 252 252 255 233 238 208 258 171 170 156 173 197 174 194 185 164 170 166 178 176 170 169 169 171 136 170 161 162 168 148 163 165 100 35 221 211 50 39 4
252 261 266 271 265 267 252 252 260 265 254 254 254 249 236 236 218 195 175 177 170 192 180 186 196 176 177 173 180 173 177 170 172 159 159 173 166 165 181 155 170 169 132 111 55 323 122 75 21
251 252 264 259 260 236 253 258 252 253 253 249 248 251 248 251 235 196 173 186 170 171 176 183 199 186 191 175 174 159 169 157 166 146 163 169 174 175 184 184 175 183 203 142 170 82 321 97 84
252 245 246 266 268 256 238 255 250 235 237 242 239 240 246 243 257 192 196 173 184 175 160 187 205 189 195 191 178 176 184 179 184 169 172 165 177 178 168 181 160 203 179 118 148 120 15 322 69
252 264 260 243 249 266 260 264 268 261 245 238 230 237 236 234 235 240 184 177 188 181 186 183 186 180 199 195 193 176 189 190 182 174 157 167 171 183 177 182 172 192 198 155 126 174 8 74 41
254 256 251 259 261 244 244 251 254 244 237 238 209 252 254 253 240 237 228 178 179 186 192 195 208 167 166 219 187 184 189 185 189 187 168 174 172 180 191 180 174 183 161 172 173 149 112 62 52
248 238 250 243 232 246 246 245 250 263 266 24 47 20 2 344 302 297 307 240 181 177 199 190 193 186 179 183 198 173 181 209 196 189 184 179 175 179 181 181 180 180 184 170 162 196 156 159 90
239 235 235 247 252 259 239 232 243 233 118 140 202 23 9 348 344 338 307 309 303 194 191 187 183 194 191 171 183 211 140 234 207 178 188 192 185 172 160 181 177 183 180 179 186 185 192 126 144
259 257 257 256 273 276 273 266 271 142 158 171 139 34 27 348 319 310 304 297 307 306 195 201 203 195 199 205 203 202 195 208 206 175 185 194 184 170 159 176 180 183 178 182 184 193 184 169 192
265 279 274 246 253 254 259 263 260 189 185 160 148 141 78 337 312 330 315 346 293 293 293 200 213 179 192 196 198 207 205 205 194 173 182 195 180 186 157 173 183 180 185 186 192 151 167 192 194
262 238 250 265 261 257 274 257 25 27 95 147 113 86 70 6 358 350 351 359 329 311 273 272 200 219 206 184 189 209 209 200 181 169 179 197 163 119 168 167 182 180 187 189 194 200 163 186 185
288 281 283 256 255 268 273 247 54 51 115 91 87 47 20 11 24 351 2 15 359 348 337 303 258 200 214 200 189 191 214 188 166 170 154 167 110 110 186 178 188 193 195 190 192 200 183 193 193